Theta_e
344 344 349 355 358 358 360 363 363 364 365 365 365 363 362 363 363 365 366 368 368 367 367 365 364 365 363 363 363 363 363 364 364 364 363 363 360 360 362 364 365 363 361 360 360 361 360 359 359 358 361 364 364 362 361 363 363 363 363 362 362 361 360
345 343 346 349 354 358 360 362 364 365 365 365 366 364 363 364 364 365 368 369 369 368 368 366 365 365 364 364 364 363 363 364 364 365 364 363 362 361 361 362 364 364 362 360 359 361 361 361 361 360 361 364 365 364 362 363 365 363 362 362 363 362 361
345 342 344 346 353 359 360 361 364 366 365 365 366 365 364 365 365 366 368 370 370 369 369 368 367 366 365 365 363 363 364 364 364 365 364 363 363 362 361 361 362 363 363 362 359 360 361 362 362 362 362 363 365 365 363 363 364 363 361 361 362 362 363
346 343 343 347 355 360 360 360 363 365 366 365 367 366 366 366 366 367 368 370 371 370 371 370 368 367 365 364 364 363 364 365 365 366 365 364 364 363 362 361 362 363 363 363 361 359 360 362 364 364 363 364 365 365 364 363 363 363 361 361 361 361 363
346 345 343 346 353 358 360 360 362 365 366 365 367 367 367 367 367 367 368 370 371 370 371 370 368 367 365 364 364 363 365 365 365 366 365 364 363 365 364 362 362 362 361 362 363 361 361 361 364 366 365 365 366 365 364 363 363 363 363 362 361 360 361
342 345 344 344 349 356 360 358 360 365 365 364 366 367 367 368 367 367 368 369 370 370 371 370 368 367 366 365 364 364 365 366 366 366 365 364 364 365 365 363 362 362 361 361 362 363 362 362 363 365 365 365 365 363 363 364 363 364 364 363 361 360 360
341 346 346 345 346 352 358 358 360 363 364 363 364 366 366 367 367 366 367 368 369 370 370 369 369 367 367 366 365 365 366 366 367 366 365 364 364 365 366 365 363 362 362 362 362 363 364 364 364 364 365 365 365 363 363 364 364 363 364 364 362 361 360
341 345 345 344 345 349 354 359 359 361 363 363 363 365 365 366 367 366 366 367 368 369 369 369 368 368 368 368 366 366 366 366 367 367 366 365 365 366 367 366 365 364 363 363 363 364 364 365 365 365 365 365 365 365 363 364 365 364 364 364 363 362 361
339 343 344 344 343 344 351 357 360 361 363 363 362 363 365 365 366 366 366 366 366 367 367 367 367 368 369 369 367 366 366 366 367 367 367 365 365 366 366 366 366 366 364 364 364 364 365 365 366 366 366 365 365 365 364 364 365 365 364 364 364 363 361
339 343 345 344 343 345 349 354 360 362 364 366 364 363 364 365 365 365 365 365 365 366 366 366 366 367 370 369 368 367 367 367 367 366 366 365 364 365 365 365 366 366 365 364 362 363 365 366 366 367 367 366 365 366 365 365 366 366 365 365 365 364 361
345 350 351 349 349 349 349 356 365 367 368 370 366 363 364 364 364 364 364 364 364 364 364 365 364 366 370 369 367 367 367 368 368 366 366 365 364 364 364 362 362 364 365 365 362 361 363 366 366 367 369 368 366 366 366 366 366 367 366 366 365 364 362
348 354 356 354 352 351 355 362 369 370 371 371 365 362 363 363 364 363 363 363 363 363 363 365 364 365 368 368 366 367 368 369 368 366 366 366 364 363 363 360 359 361 364 365 363 361 361 365 367 367 369 369 368 367 367 368 367 367 367 365 365 365 364
345 351 357 356 353 354 358 363 365 367 369 366 362 361 362 362 363 362 363 363 362 362 363 364 364 365 367 368 366 367 369 369 368 367 366 366 365 362 361 359 358 358 362 364 365 364 361 363 367 368 368 370 369 368 368 368 368 368 368 366 365 365 365
343 349 357 358 357 358 359 360 362 365 366 363 361 361 360 361 362 362 363 363 362 362 362 363 364 365 367 368 367 368 370 370 369 368 365 365 366 364 361 360 359 358 359 363 365 365 363 362 365 368 368 369 370 369 369 369 369 368 369 367 365 365 365
337 342 349 354 359 362 362 362 363 364 365 364 361 360 360 359 361 361 361 362 362 361 360 362 363 364 366 368 368 369 371 371 370 369 367 365 366 367 364 361 360 360 359 362 365 365 365 363 363 367 369 369 370 369 369 370 370 369 368 368 367 365 365
333 335 339 345 355 360 361 363 366 366 367 367 364 362 361 360 360 361 361 361 361 361 360 361 363 364 365 367 369 370 371 372 371 370 369 367 367 369 367 364 362 362 361 362 364 365 366 364 363 365 368 369 370 370 370 370 370 368 366 366 367 366 365
332 333 335 343 353 359 361 363 366 369 370 369 367 365 361 360 361 360 360 360 360 360 359 359 362 364 365 367 369 371 372 373 372 371 371 370 369 369 369 367 364 364 363 363 364 365 366 366 365 364 366 368 370 370 370 370 370 368 365 363 364 365 366
333 333 333 338 345 351 354 358 363 369 368 366 367 366 362 361 362 360 359 360 359 360 359 358 361 364 366 366 369 371 372 373 373 372 371 371 370 369 370 369 367 366 366 366 365 366 367 367 367 366 365 366 368 369 370 370 369 368 365 363 361 362 364
332 332 333 335 337 338 339 345 354 360 361 360 361 362 361 360 360 360 360 359 359 359 359 358 359 363 366 367 368 372 373 373 374 373 372 372 371 370 371 370 370 368 368 368 367 367 368 368 368 367 366 365 367 368 369 370 369 368 366 363 361 360 362
332 332 334 334 334 334 334 338 348 354 355 356 355 355 358 359 358 359 360 359 359 360 360 360 360 362 366 367 368 372 373 374 374 374 373 373 371 371 371 371 371 370 368 369 368 368 369 369 369 369 368 366 366 366 368 369 369 368 366 364 362 360 360
335 335 337 334 334 343 350 351 355 357 356 355 352 350 354 358 358 359 359 360 360 360 361 362 361 362 365 367 369 372 373 374 374 374 374 373 372 372 371 371 372 371 369 369 369 369 369 369 369 369 369 368 367 366 367 367 367 368 367 365 363 361 360
334 334 335 333 338 357 368 367 363 362 361 362 358 353 352 355 357 358 359 360 360 361 362 363 362 362 365 368 370 372 374 374 374 374 374 373 373 372 371 372 372 371 370 369 368 369 369 369 370 369 369 369 368 367 366 366 366 366 367 366 364 362 361
333 333 332 337 348 362 369 368 365 363 363 364 362 356 353 353 355 358 359 360 361 362 362 363 364 363 365 369 371 371 372 373 373 373 373 373 373 372 372 372 372 371 371 370 368 368 369 369 370 369 369 369 369 368 367 366 365 365 366 365 364 362 361
329 334 342 351 357 361 363 367 369 368 366 367 367 365 361 357 356 359 360 360 361 363 363 364 364 363 365 370 372 371 372 372 371 372 373 373 374 372 372 372 371 371 372 370 368 368 367 369 369 369 369 369 369 369 368 367 367 366 365 365 364 363 361
347 350 354 359 361 360 363 369 370 368 366 366 367 367 364 360 359 360 361 361 362 362 363 363 363 364 366 369 371 370 371 370 370 371 372 372 373 372 372 371 371 372 372 370 369 368 367 367 368 369 369 369 369 369 368 368 367 366 365 364 363 363 361
358 356 356 359 362 361 364 368 369 370 370 369 370 370 364 359 359 360 360 361 362 363 364 364 364 364 366 368 369 369 370 369 370 371 371 371 372 371 371 371 370 371 370 370 369 369 368 367 366 367 368 368 368 368 367 367 367 366 365 365 363 362 361
357 357 356 360 361 360 363 367 369 370 370 370 370 369 365 361 360 360 360 361 363 365 365 364 365 364 365 367 367 368 369 369 370 370 370 369 370 370 369 369 369 369 370 369 369 368 369 368 367 366 367 367 367 366 366 366 365 365 365 365 364 362 361
356 357 359 361 361 361 363 367 369 368 367 367 366 363 363 364 362 362 362 363 365 366 364 364 364 365 365 367 366 366 367 368 369 370 369 368 370 371 370 370 369 369 369 368 368 368 369 369 368 367 367 367 366 365 365 365 365 365 365 364 363 363 361
356 356 357 359 360 361 363 365 366 365 365 367 368 365 362 362 364 364 364 366 367 364 362 362 364 365 366 367 366 366 367 367 369 369 369 368 370 370 371 371 370 369 369 368 368 369 369 369 369 367 366 365 364 364 365 365 365 365 364 363 363 362 361
356 356 357 358 358 359 362 364 365 365 364 365 369 368 365 364 366 367 368 369 369 366 364 364 365 366 368 368 367 367 366 366 368 368 368 368 369 370 372 372 370 369 368 369 369 368 368 367 367 366 366 365 365 364 365 365 365 364 364 364 363 362 361
353 355 357 357 357 357 359 361 362 362 362 362 364 366 367 368 368 368 368 369 369 369 368 368 369 370 369 368 368 367 365 366 367 368 369 369 369 370 371 370 370 369 368 368 367 366 366 366 365 365 365 366 366 365 365 365 364 364 364 363 363 362 361
352 353 356 357 356 356 358 358 359 359 360 360 360 361 363 364 365 366 365 364 366 368 369 369 370 369 369 369 369 368 366 366 367 368 369 368 368 369 368 368 367 367 366 366 365 365 365 365 365 365 365 365 365 365 365 365 364 364 364 363 363 363 361
351 353 355 355 355 356 356 357 358 358 359 359 359 359 360 360 361 362 362 363 365 366 367 369 369 369 368 368 368 367 367 367 366 367 368 367 366 365 365 364 365 365 365 365 364 365 365 365 365 365 364 363 364 364 364 365 364 365 365 364 362 361 360
351 352 353 354 354 355 357 357 357 357 357 356 356 356 357 358 358 359 360 361 363 364 367 369 369 369 369 368 368 369 368 366 365 366 366 365 364 365 364 364 364 364 365 365 365 366 366 366 366 366 365 365 365 365 366 366 366 365 364 362 360 357 356
351 352 352 353 353 354 355 356 355 355 355 354 354 354 354 355 355 356 358 359 360 363 365 366 367 368 368 368 368 369 369 366 365 365 363 362 363 364 363 363 365 367 365 362 362 362 362 363 363 363 363 362 362 361 362 363 362 360 358 356 356 355 351
350 351 352 351 352 352 353 353 353 353 353 352 352 352 352 352 353 353 354 356 358 359 360 361 361 362 362 364 365 366 366 365 365 365 366 364 364 362 356 351 354 359 358 354 352 351 351 352 351 349 349 349 347 345 345 344 343 342 341 340 342 343 342
349 350 351 351 351 352 352 351 351 351 351 351 351 350 350 350 351 351 352 353 354 355 356 356 356 356 357 358 358 359 360 360 360 361 362 362 362 363 356 346 340 341 342 341 340 340 340 339 338 337 336 335 334 333 332 332 332 332 331 330 330 330 331
350 350 350 351 351 351 351 351 351 351 351 352 351 350 350 349 349 350 350 351 351 352 353 353 354 354 354 354 353 354 355 354 354 354 355 355 355 356 355 347 337 333 332 333 334 334 332 331 330 330 330 330 331 331 330 329 329 329 329 330 329 329 329
Wind_Speed
13 15 16 15 16 18 19 20 21 22 27 30 32 34 35 35 35 33 33 35 37 36 36 34 33 33 33 33 32 31 29 26 25 25 26 25 24 24 23 22 21 21 21 20 20 20 20 19 19 19 20 20 19 19 19 19 18 16 15 15 13 13 14
15 15 15 15 16 18 20 20 21 23 27 30 31 33 34 34 35 35 34 35 37 37 37 37 35 34 34 34 33 31 29 28 26 25 25 25 25 25 25 23 22 22 22 21 20 19 20 20 20 20 20 21 20 20 20 20 19 18 17 16 15 14 15
16 16 15 17 17 18 19 20 21 25 28 30 31 33 35 36 37 37 35 35 37 36 36 37 36 35 35 34 33 32 31 29 28 27 27 26 26 26 25 24 24 22 22 22 21 20 19 20 21 22 22 22 21 21 21 21 21 20 18 18 17 16 16
18 18 17 18 19 18 19 20 21 25 29 32 34 35 36 37 37 37 36 36 37 37 37 37 37 36 35 34 33 32 32 31 30 29 28 27 26 25 25 25 25 24 23 23 22 21 20 20 21 22 23 23 22 22 22 22 22 21 20 19 18 17 17
21 21 17 17 18 17 18 20 21 25 29 33 35 36 36 36 35 35 34 35 37 38 39 38 37 35 34 34 33 32 33 34 32 30 29 27 26 25 26 26 26 25 25 23 22 22 22 21 21 22 23 23 23 22 23 23 23 22 21 21 19 18 17
19 19 16 16 16 16 19 21 23 27 30 32 33 33 33 34 35 35 34 34 36 37 37 37 36 35 35 35 34 33 33 34 33 32 30 28 27 26 27 28 27 26 26 24 23 23 23 23 22 22 23 23 23 23 23 23 23 23 23 22 20 19 18
16 16 15 15 15 17 19 20 22 27 29 29 30 31 32 34 35 35 34 34 35 36 37 37 37 36 35 35 35 34 34 34 34 33 31 29 29 28 28 27 28 27 26 25 24 24 24 24 24 24 24 24 23 23 24 24 24 23 23 23 22 21 19
15 15 15 15 15 16 18 18 19 22 25 27 28 30 32 33 34 35 35 35 35 35 36 38 38 37 36 35 35 35 35 34 33 33 32 31 30 30 29 27 28 27 26 25 25 25 25 25 25 25 24 24 23 24 24 24 25 24 24 24 23 22 21
16 15 15 15 16 15 15 16 16 18 22 25 26 29 31 32 33 35 36 35 35 36 37 38 38 38 37 36 35 35 35 34 33 32 33 32 32 31 31 29 28 28 28 27 26 26 26 26 25 25 25 25 24 24 24 24 25 25 24 25 24 24 22
14 14 12 12 13 11 12 14 14 15 17 19 22 26 29 31 32 33 34 35 36 37 38 37 36 36 36 35 35 35 35 34 33 33 34 34 33 33 32 31 29 29 29 29 27 26 26 26 26 25 25 25 25 24 24 24 25 25 25 25 25 24 24
8 9 9 9 9 9 11 13 14 13 13 15 20 25 27 29 30 30 32 35 35 36 36 36 35 35 35 35 35 35 35 34 34 34 35 35 34 34 34 33 31 29 29 30 29 29 27 26 26 26 26 26 26 26 26 25 26 26 26 25 25 25 25
7 6 7 9 9 10 11 11 12 13 12 13 20 23 24 26 28 29 30 33 33 32 34 34 34 34 34 34 34 34 35 35 35 35 36 36 35 34 34 34 32 30 29 29 30 30 28 27 27 27 27 27 27 27 27 27 27 27 27 26 25 26 26
4 5 6 8 8 9 9 9 11 13 12 14 19 22 23 25 27 27 28 30 31 30 31 33 33 33 33 33 33 34 35 35 36 35 35 36 35 34 33 33 33 32 30 29 29 29 29 29 28 28 28 28 28 28 28 28 28 28 28 28 27 27 27
5 7 7 8 8 9 9 9 9 11 12 14 18 21 22 23 26 27 27 28 29 29 29 31 32 32 32 32 32 32 34 35 35 35 35 35 34 33 33 32 33 33 31 29 29 29 30 30 29 28 28 29 29 29 29 30 30 30 30 29 28 28 27
5 9 10 9 10 10 10 10 9 10 12 13 16 19 21 21 23 25 25 26 27 29 29 29 31 32 31 31 32 32 32 32 32 33 34 33 33 32 32 32 32 32 31 30 29 29 29 29 29 29 29 29 30 30 30 30 31 31 31 30 29 28 28
3 8 12 12 11 10 10 11 11 11 12 13 14 17 20 21 21 23 24 25 26 28 28 28 29 31 31 31 31 30 29 30 31 31 31 31 32 32 31 31 31 30 31 31 29 28 28 28 29 29 29 29 30 30 30 30 31 33 35 34 31 29 28
4 5 7 11 12 11 10 10 11 11 13 13 14 17 20 21 21 22 23 25 26 28 28 28 28 30 31 30 29 28 27 28 29 29 29 30 30 30 30 30 30 30 30 30 30 29 27 27 28 29 29 29 29 30 30 30 32 35 38 39 36 32 29
4 6 6 5 7 6 7 9 10 11 12 13 15 18 20 20 21 22 24 25 26 27 28 29 29 29 30 29 27 27 28 28 28 28 28 29 28 28 28 28 28 28 28 29 30 29 28 27 28 29 29 28 28 29 30 30 32 36 39 41 42 39 32
7 8 8 6 4 4 5 6 6 8 8 9 12 16 18 20 22 23 24 24 24 26 28 30 29 28 29 29 28 28 29 28 28 28 28 28 28 27 26 27 28 29 29 28 28 28 29 29 29 29 30 29 29 29 30 30 32 36 40 42 44 44 39
9 8 8 7 6 6 6 4 2 3 5 6 9 12 15 19 21 21 23 24 25 26 27 28 28 27 28 29 29 28 28 28 29 29 28 28 28 27 27 28 29 30 29 27 28 29 30 30 29 29 30 31 30 30 30 30 31 35 40 42 43 45 44
8 8 8 8 7 5 4 3 2 3 4 6 8 10 12 16 18 19 21 23 25 26 26 26 27 26 27 28 29 28 28 28 28 27 26 26 27 28 29 29 29 29 28 28 28 29 29 29 30 30 30 31 31 30 30 30 32 34 38 41 42 44 45
9 9 9 8 5 2 3 2 2 3 4 5 6 8 11 13 16 18 20 22 24 25 26 26 26 27 27 28 29 29 28 27 27 25 25 26 27 28 29 29 29 28 28 27 27 27 28 28 29 30 30 30 30 31 31 31 32 34 36 39 41 42 45
11 11 9 6 5 4 3 3 3 4 6 7 8 10 10 11 14 16 18 21 23 24 25 26 26 27 27 27 28 28 27 27 27 26 27 27 28 29 30 29 28 27 27 27 26 27 27 27 28 28 28 29 30 31 31 30 32 35 36 38 40 41 45
11 7 4 5 6 5 5 4 4 5 6 8 10 10 9 10 12 15 17 19 22 23 24 26 26 27 27 26 26 27 26 27 27 27 27 28 28 28 27 26 26 25 25 25 26 26 26 25 25 25 26 28 30 30 30 29 30 34 36 38 40 42 46
2 4 7 6 5 6 7 6 6 6 7 8 9 8 9 10 11 14 16 18 20 23 24 25 25 26 26 25 24 24 24 25 25 25 26 26 26 25 24 24 24 23 23 24 24 24 24 24 24 24 25 26 27 29 30 29 30 33 36 38 40 42 46
10 8 7 6 6 7 7 7 6 5 5 4 4 5 6 9 11 14 16 17 19 21 22 22 23 23 24 23 22 22 23 23 24 25 25 24 24 23 23 23 22 22 23 23 23 23 23 23 23 24 24 24 25 28 30 30 30 32 35 38 40 43 46
8 7 6 6 7 7 7 6 4 4 4 4 4 4 5 8 11 13 14 16 17 18 19 19 20 21 22 22 22 23 23 23 24 24 24 23 22 22 22 22 22 22 22 21 21 20 21 21 22 22 23 23 24 25 27 29 30 31 33 36 40 44 47
7 6 6 5 5 4 5 4 4 4 4 3 4 6 7 8 10 11 12 13 14 15 15 16 18 19 20 21 21 22 22 21 22 22 21 21 21 20 20 20 20 20 20 19 19 19 20 20 20 20 21 21 23 24 25 26 27 29 32 35 38 43 48
6 6 6 4 4 4 4 3 3 3 4 5 3 2 5 7 8 9 10 10 10 12 12 13 14 17 18 18 18 19 19 19 19 18 18 19 19 19 18 18 19 19 19 19 18 18 19 19 20 20 20 20 22 24 25 24 25 27 30 33 36 40 45
4 5 5 4 3 5 4 2 2 3 4 6 6 3 2 5 7 7 8 7 5 6 9 10 11 13 15 15 16 16 16 16 17 17 16 16 17 18 17 17 17 17 17 17 17 17 17 18 19 20 19 19 21 22 22 22 23 26 29 32 35 37 41
4 5 5 3 3 5 4 3 3 4 4 5 5 4 4 3 5 6 7 5 3 4 7 8 9 11 12 13 14 14 14 14 14 15 14 14 15 16 16 16 16 16 16 16 16 17 17 17 18 18 18 19 20 21 21 21 22 24 27 29 31 35 38
5 5 6 3 2 3 2 3 3 3 4 6 5 5 5 4 5 6 5 3 3 5 7 8 9 9 9 10 11 12 13 13 13 13 13 13 13 13 13 13 14 14 15 15 16 16 16 16 16 16 17 18 19 20 20 20 20 21 23 24 27 31 34
5 5 5 4 2 2 2 1 3 4 5 6 6 6 6 6 5 5 4 5 6 7 7 8 9 9 8 9 9 10 11 11 11 11 12 12 12 12 13 13 13 14 14 15 15 16 16 16 15 15 16 17 18 18 19 19 19 20 21 20 21 25 32
6 5 4 3 3 3 1 2 3 4 5 6 6 8 8 7 6 5 3 4 5 7 7 7 8 9 9 9 8 7 8 9 9 9 11 12 11 8 8 9 11 11 9 7 7 8 9 11 12 12 13 14 13 13 14 14 16 16 15 12 10 13 21
5 5 3 2 3 3 1 3 4 5 6 6 6 7 7 6 6 6 5 4 5 6 8 9 9 9 9 8 8 7 6 8 8 6 7 10 9 8 9 5 2 3 5 6 4 3 2 2 3 4 6 6 7 8 9 11 14 17 20 22 22 23 24
5 4 3 2 2 2 2 4 4 5 6 6 6 7 7 7 7 7 6 6 6 7 9 9 9 10 9 8 8 8 7 7 6 4 3 5 9 11 13 11 7 5 6 6 5 4 3 3 2 3 5 4 5 6 7 10 14 18 22 26 27 31 33
5 4 3 4 4 4 5 6 6 7 7 7 8 8 8 9 9 9 8 8 8 8 9 9 9 9 9 9 9 8 7 7 5 5 4 4 4 6 8 12 12 9 9 9 9 8 7 6 5 5 6 7 8 9 10 12 16 18 20 22 23 25 29
2 3 4 6 6 7 8 8 8 9 9 9 9 10 10 10 10 10 10 10 9 9 9 9 10 10 11 11 10 9 9 9 8 7 6 5 4 4 6 9 11 12 13 13 13 13 12 12 12 12 11 12 13 14 15 16 19 20 22 24 26 27 29
Wind_Direction
212 204 193 187 190 191 190 189 188 189 189 188 189 187 185 185 185 184 183 183 182 183 184 185 187 189 193 196 198 200 201 201 202 203 204 205 208 208 208 208 208 209 211 212 213 214 213 212 210 209 208 207 208 208 205 203 201 200 199 197 196 195 193
211 214 195 187 194 193 190 189 186 189 190 189 190 189 187 186 185 185 184 183 183 183 184 185 187 189 192 195 197 198 199 201 203 203 204 206 208 209 210 209 210 211 213 214 215 215 213 211 209 209 207 206 207 206 204 203 200 198 197 196 196 196 195
200 215 202 189 193 193 188 187 187 189 190 189 189 190 190 189 187 186 185 183 183 184 184 185 187 188 191 193 195 197 199 200 202 204 205 206 208 209 210 210 211 213 213 215 215 215 213 211 209 208 207 206 205 204 204 204 202 199 198 197 198 198 197
190 207 206 192 190 190 187 187 188 190 192 191 190 191 192 191 188 187 186 184 183 183 185 186 187 189 190 191 193 196 198 200 202 204 206 207 208 209 210 210 211 212 213 215 215 215 214 213 210 208 208 206 205 203 202 202 202 202 200 197 198 199 200
187 199 203 194 190 188 187 189 189 190 193 193 192 191 191 190 189 189 188 187 185 185 186 186 188 189 190 191 193 196 198 200 201 204 206 207 208 209 210 211 211 211 213 214 214 213 214 213 211 209 207 206 206 205 202 201 201 200 199 198 198 199 199
186 195 200 196 191 187 188 192 191 192 194 194 193 191 190 189 190 191 190 189 189 188 187 187 188 189 190 192 195 196 198 200 201 204 205 206 206 208 210 211 211 212 213 213 213 213 213 212 211 210 209 209 208 208 205 202 200 199 199 200 200 200 200
186 191 199 199 194 190 191 193 193 192 193 193 192 191 191 191 191 192 192 191 191 190 188 188 189 190 191 193 195 195 197 199 200 202 204 205 205 207 210 210 210 212 211 211 212 212 211 211 211 210 211 211 210 209 207 203 202 200 199 201 201 201 202
186 189 198 200 197 195 193 193 192 190 189 191 192 191 193 193 192 192 193 192 192 191 191 191 191 191 192 193 195 196 197 198 199 201 202 204 205 207 208 208 209 210 209 211 211 211 211 211 210 210 210 211 211 211 208 203 202 201 199 202 202 200 202
188 190 199 203 202 199 191 188 189 187 186 191 194 193 193 194 194 194 194 192 192 193 194 193 192 191 190 191 194 195 197 198 199 200 201 203 205 207 208 209 208 208 208 210 211 211 211 211 210 208 208 210 211 210 210 206 202 202 201 202 202 201 202
183 180 190 201 203 198 188 181 181 184 185 190 195 194 194 196 197 196 195 193 194 195 196 194 193 191 189 190 193 194 196 197 198 200 202 204 206 208 209 209 209 209 209 211 213 213 212 210 210 208 205 207 209 208 209 207 203 204 205 204 202 203 204
140 145 169 191 196 191 183 174 173 183 187 187 192 196 196 197 199 199 198 197 197 196 195 194 193 192 191 191 193 194 195 196 198 200 202 205 207 209 210 211 211 211 211 211 213 214 213 210 208 208 205 204 206 205 205 206 204 204 206 206 204 204 206
110 135 171 189 192 188 184 177 175 183 188 186 191 196 197 197 199 201 200 201 201 198 195 194 194 193 192 192 194 194 195 196 198 201 203 205 208 210 211 213 213 213 212 211 212 212 213 211 207 206 205 203 203 204 203 203 204 204 206 207 206 205 206
138 163 176 181 183 183 182 183 182 184 187 190 194 197 199 199 201 202 202 202 203 200 196 195 194 194 193 193 194 194 194 196 198 201 203 206 209 211 212 213 214 214 213 211 211 211 212 211 208 205 205 203 202 203 202 202 203 204 206 207 208 207 206
160 160 162 166 168 173 179 184 185 185 188 193 197 200 201 202 202 203 203 203 203 202 200 197 195 195 194 193 195 195 195 196 197 200 204 206 208 209 210 212 213 213 213 211 210 211 211 211 209 205 204 203 203 203 202 201 202 204 205 206 208 208 206
170 156 155 158 162 168 174 180 183 184 188 194 200 201 202 204 204 203 204 203 202 204 203 198 196 196 195 194 196 196 195 194 196 200 203 205 205 206 208 210 211 211 212 212 211 211 212 212 210 207 204 203 203 203 203 202 203 204 205 206 206 207 208
215 166 160 158 164 172 173 176 181 184 188 193 199 201 201 204 205 204 205 203 203 204 203 199 196 196 197 197 197 195 192 193 196 198 201 203 203 204 205 207 208 209 210 212 212 212 211 212 213 211 208 205 203 203 204 204 206 208 209 209 207 206 207
261 223 183 160 161 166 165 172 178 181 188 193 197 200 201 202 203 204 205 204 203 204 203 200 197 196 198 199 196 193 191 192 195 197 199 201 202 202 203 204 207 208 209 211 212 212 212 212 214 214 212 209 206 205 206 207 209 211 212 212 211 208 207
272 263 253 201 170 161 169 185 183 181 191 197 196 199 202 202 201 203 205 204 202 202 202 203 200 197 198 199 195 191 191 191 193 195 198 200 201 201 201 202 204 206 208 209 209 210 212 212 213 215 215 214 211 210 210 211 212 213 213 215 215 212 209
272 261 259 253 243 235 229 219 194 185 194 198 199 202 202 201 202 204 205 203 199 200 202 204 202 197 195 197 195 192 191 190 191 194 197 198 198 199 199 200 203 205 206 207 207 208 210 212 212 213 215 216 215 215 215 215 214 214 215 216 217 215 212
275 273 270 274 282 280 281 300 289 216 214 213 218 216 207 204 206 205 203 201 199 199 201 203 203 197 194 195 196 194 191 190 191 194 195 195 195 195 198 200 203 204 205 205 206 208 210 212 212 213 214 216 217 218 219 219 218 216 216 217 218 217 214
275 280 281 282 286 293 312 324 289 254 248 238 234 227 214 210 209 204 201 200 200 200 200 200 202 198 194 195 197 195 192 191 192 193 192 192 193 195 199 202 203 204 204 205 207 209 210 212 213 214 215 216 218 220 221 222 222 220 217 217 219 218 216
275 277 278 279 289 346 44 21 300 292 285 269 251 236 225 217 210 204 201 199 200 200 198 198 200 199 196 195 196 195 193 192 192 192 192 192 193 196 200 202 203 203 203 206 209 211 212 214 215 216 217 217 217 220 223 223 223 222 220 217 218 218 216
266 270 273 293 334 7 22 342 299 281 269 262 254 247 240 229 215 207 202 199 200 200 198 198 200 200 197 196 197 196 195 194 194 194 194 194 196 200 202 202 203 204 203 206 210 213 214 215 217 218 219 219 219 220 223 225 224 224 222 218 216 215 214
245 257 308 2 356 340 338 334 316 293 277 265 256 248 243 237 222 209 203 200 199 198 199 200 201 199 197 197 197 196 196 197 197 196 196 197 200 202 203 203 205 205 204 207 211 215 217 218 220 221 222 223 223 222 224 227 226 225 224 220 216 213 213
349 43 32 21 357 339 338 337 324 300 280 266 257 244 234 232 223 211 205 201 198 199 201 203 202 199 198 197 197 197 198 199 200 199 199 201 203 204 204 204 206 206 206 209 213 217 219 220 222 224 224 225 226 225 225 227 228 227 225 221 217 213 212
25 27 10 359 4 354 332 320 317 302 288 283 276 253 226 218 215 212 206 200 199 201 204 205 203 201 200 198 196 197 197 198 199 199 201 203 203 204 204 204 205 207 208 211 214 217 220 222 224 227 228 228 230 231 229 229 231 231 227 222 219 215 211
8 7 356 357 0 341 313 312 335 327 316 314 289 262 230 213 211 210 204 199 201 205 205 204 202 201 200 197 195 196 196 197 198 199 202 204 203 204 206 205 207 209 209 212 215 217 220 222 225 230 232 232 234 236 236 234 233 234 231 225 221 218 213
351 352 357 359 351 328 309 322 351 340 323 307 261 235 218 210 206 202 197 197 202 206 206 204 200 198 198 197 196 196 195 196 198 198 201 203 202 202 204 205 207 209 209 212 215 217 219 221 224 229 233 236 238 239 240 239 235 233 233 229 226 222 216
336 324 324 328 337 351 343 335 349 350 349 354 343 239 204 199 197 194 192 192 199 203 203 201 195 192 193 194 194 195 195 196 197 196 198 201 200 199 202 203 205 207 209 211 214 216 219 222 227 233 237 241 243 243 244 244 240 237 236 233 229 225 220
319 309 305 314 345 3 1 359 13 18 22 21 14 13 166 178 180 179 172 165 170 182 182 184 184 183 185 188 189 191 194 194 194 195 196 196 195 197 200 200 203 207 208 211 216 220 224 229 233 237 241 244 247 248 247 247 245 243 242 239 234 229 226
322 309 300 309 352 357 358 31 42 39 57 57 42 41 64 111 146 152 148 134 117 139 155 165 173 176 180 182 183 186 189 191 192 193 192 191 192 195 199 201 205 210 212 216 222 228 232 237 238 240 243 245 247 250 250 251 251 249 248 246 242 237 234
308 292 286 292 335 338 345 54 62 62 81 84 79 78 84 101 123 134 144 154 162 162 161 163 166 167 172 175 174 177 182 184 186 187 187 190 192 194 201 206 208 211 214 218 224 227 232 238 240 242 245 247 249 252 253 254 256 256 255 253 249 244 240
287 286 294 308 326 305 292 83 83 79 80 79 76 75 76 83 97 116 146 161 165 164 162 161 157 153 158 162 160 165 173 176 179 181 182 186 194 199 204 209 213 215 217 222 228 229 229 232 235 239 244 248 251 254 255 255 255 255 256 256 252 246 242
276 278 285 293 289 273 245 123 112 101 89 82 74 67 66 68 69 71 94 126 145 147 139 136 137 138 143 144 140 146 161 166 168 173 178 184 190 194 196 202 210 213 210 214 227 230 232 236 238 243 249 254 260 266 270 271 267 262 269 284 288 271 255
273 271 273 284 278 267 144 102 105 100 93 91 86 82 85 90 86 81 83 91 112 122 113 101 99 106 111 108 101 97 115 138 147 160 181 178 155 102 77 83 130 132 98 78 61 45 8 306 279 281 283 286 300 308 304 297 292 290 296 302 301 295 288
254 252 243 234 229 199 128 108 105 102 100 101 97 94 94 94 89 86 89 91 97 107 111 107 105 107 109 103 95 93 97 105 98 68 68 136 125 96 77 68 63 67 72 63 49 38 25 7 352 335 327 335 348 343 329 317 314 312 307 302 297 291 288
235 219 199 189 175 152 136 129 123 115 111 105 97 93 92 88 82 79 82 88 93 100 110 115 113 112 113 108 102 106 114 111 95 75 69 86 119 121 99 82 72 70 78 82 82 83 85 84 79 64 44 38 32 17 4 353 345 339 329 319 312 302 294
182 166 161 162 155 142 134 131 123 114 108 101 95 92 88 83 80 76 76 81 90 97 104 108 105 102 104 105 102 102 107 108 105 106 108 100 104 128 124 106 95 90 89 90 85 80 79 80 79 73 60 49 38 24 13 4 356 350 342 332 323 315 309